Flag for Germany Weather past 2 weeks in Deggendorf, Bavaria, Germany

Now
66 °F

Passing clouds.


Feels Like: 66 °F
Forecast: 44 / 71 °F
Wind: 2 mph from Northwest

Location: Straubing

Current Time: May 28, 2015 at 5:02:31 PM

Latest Report: May 28, 2015 at 4:00 PM


Visibility: 18 mi

Pressure: 29.99 "Hg

Humidity: 46%

Dew point: 44 °F

Location of DeggendorfLocation

Historic Weather in Deggendorf — Graph

°F

Deggendorf temperature yesterday

Maximum temperature yesterday: 57 °F (at 3:00 PM)
Minimum temperature yesterday: 46 °F (at 10:00 PM)
Average temperature yesterday: 52 °F

Past Weeks' High & Low Weather Summary

 TemperatureHumidityPressure
High74 °F (May 18, 6:00 PM)100% (May 25, 2:00 AM)30.32 "Hg (May 25, 2:00 AM)
Low40 °F (May 28, 2:00 AM)36% (May 16, 3:00 PM)29.70 "Hg (May 18, 8:00 PM)
Average56 °F76%30.04 "Hg
* Reported May 13 4:00 PM — May 28 4:00 PM, Deggendorf, Weather by CustomWeather, © 2015

Note: Actual official high and low records may vary slightly from our data, if they occured in-between our weather recording intervals... More about our weather records

Advertising

Deggendorf weather history for previous 24 hours

 ConditionsComfort  
Time TempWeatherWind HumidityBarometerVisibility
4:00 PM
Thu, May 28
66 °FPassing clouds.2 mph46%29.99 "Hg18 mi
3:00 PM64 °FSunny.3 mph47%30.01 "Hg13 mi
2:00 PM62 °FPartly sunny.2 mph53%30.04 "Hg16 mi
1:00 PM60 °FScattered clouds.1 mph54%30.06 "Hg17 mi
12:00 PM57 °FOvercast.2 mph61%30.09 "Hg17 mi
10:00 AM51 °FOvercast.3 mph72%30.14 "Hg22 mi
9:00 AM49 °FOvercast.3 mph81%30.15 "Hg18 mi
8:00 AM46 °FOvercast.2 mph90%30.16 "Hg14 mi
7:00 AM44 °FOvercast.2 mph94%30.16 "Hg11 mi
6:00 AM43 °FOvercast.1 mph92%30.16 "Hg13 mi
4:00 AM42 °FOvercast.1 mph95%30.18 "Hg11 mi
3:00 AM41 °FOvercast.1 mph90%30.19 "Hg25 mi
2:00 AM40 °FPassing clouds.2 mph92%30.22 "Hg22 mi
1:00 AM40 °FPassing clouds.2 mph89%30.22 "Hg22 mi
12:00 AM41 °FPassing clouds.2 mph88%30.22 "Hg25 mi
10:00 PM
Wed, May 27
46 °FClear.1 mph76%30.22 "Hg43 mi
9:00 PM51 °FClear.2 mph60%30.20 "Hg43 mi
8:00 PM54 °FSunny.3 mph53%30.19 "Hg31 mi
7:00 PM55 °FPassing clouds.6 mph49%30.18 "Hg15 mi
6:00 PM56 °FScattered clouds.6 mph53%30.18 "Hg11 mi
Weather by CustomWeather, © 2015

See weather overviewHow to use our weather pages